Location: Baili�vre
(50.0696°N, 4.2409°E)
Time: 04:19:19
(UTC+00:00)

EO 1 Del DPAF - Pass Details

Date: 08 August 2020
Orbit: 514 x 515 km, 98.0° (Epoch: 19 September)

Event Time Altitude Azimuth Distance (km) Brightness Sun altitude
Rises 23:34:35 0° 6° (N) 2,645 8.2 -24.1°
Reaches altitude 10° 23:36:49 10° 357° (N) 1,753 7.0 -24.1°
Maximum altitude 23:40:13 33° 293° (WNW) 882 4.5 -24.1°
Enters shadow 23:40:23 33° 287° (WNW) 884 4.4 -24.1°
